Weather in Can Tho

Vietnam     10°03′33″N   105°45′35″E
temp.,
°C
wind,
m/s
gust,
m/s
humid.,
%
clouds,
%
prec.,
mm/h
press.,
hPa
HPBL,
m
19 january, tue
tue1901:00+20e118990 0.0 101223
04:00+19nnw1188100 0.0 101123
07:00+19nnw2489100 0.0 1012129
10:00+24nw3465100 0.0 1013595
13:00+28nw445182 0.0 1011997
16:00+27nnw325076 0.0 10091045
19:00+23n126381 0.0 101024
22:00+22wsw1163100 0.0 101223
20 january, wed
wed2001:00+21s1271100 0.0 101123
04:00+21w1173100 0.0 101123
07:00+21w2272100 0.0 101233
10:00+26nw3459100 0.0 1013511
13:00+29nnw455284 0.0 10101013
16:00+29nnw235280 0.0 10081168
19:00+25sw226390 0.0 101024
22:00+23sse2273100 0.0 101242
21 january, thu
thu2101:00+23s2380100 0.0 101095
04:00+22s1285100 0.0 100928
07:00+23s228591 0.0 101091
10:00+29w2258100 0.0 1011898
13:00+31nnw335192 0.0 10081357
16:00+30nnw2256100 0.0 10061125
19:00+26se2367100 0.0 100754
22:00+24s3780100 0.0 1010250
22 january, fri
fri2201:00+24s3785100 0.0 1009365
04:00+23s2590100 0.0 1008223
07:00+23sw238999 0.0 1009154
10:00+26wsw2475100 0.0 1011515
13:00+30w346089 0.0 10081052
16:00+29w236773 0.9 1006736
19:00+25wsw358685 2.1 1007149
22:00+24sw368892 0.0 1009219
23 january, sat
sat2301:00+24sw259096 0.6 1009192
04:00+24sse2291100 1.3 100875
07:00+23sse3695100 1.4 1010267
10:00+25s238899 0.7 1012205
13:00+25ssw3585100 4.8 1010312
16:00+26sw368095 0.2 1008517
19:00+23ssw239297 0.3 100970
22:00+23sse249365 0.0 1011107